Powrót do katalogu

FENGYUN 1C DEB

AktywnyPO
NORAD 30287·DEBRIS·🇨🇳 China

Wystrzelony May 10, 1999 z Taiyuan Satellite Launch Center

Loading…

Następne Przeloty (najbliższe 24 godziny)

TLE

ŚwieżeSource: Space-Track

Epoka: Sep 14, 2026, 11:46 UTC

1 30287U 99025YY  26257.49040469  .00001147  00000-0  75266-3 0  9995
2 30287  98.6177 268.6062 0411415 358.6927 167.6727 13.69326458976315

Śledź FENGYUN 1C DEB w czasie rzeczywistym z AllMySat

Download on the App Store